Cleveland, OH

6:59 PM EST on February 23, 2017 (GMT -0500)
Burke Lakefront

Weather History for KBKL - March, 2014

Change the Weather History Date:

Friday, March 28, 2014

  Actual Average Record
Temperature  
Mean Temperature 45 °F -  
Max Temperature 55 °F 48 °F 77 °F (1998)
Min Temperature 34 °F 35 °F 18 °F (2015)
Degree Days  
Heating Degree Days 20    
Moisture  
Dew Point 39 °F    
Average Humidity 79    
Maximum Humidity 93    
Minimum Humidity 49    
Precipitation  
Precipitation 0.11 in - - ()
Sea Level Pressure  
Sea Level Pressure 29.85 in    
Wind  
Wind Speed 18 mph (SW)    
Max Wind Speed 33 mph    
Max Gust Speed 48 mph    
Visibility 9 miles    
Events Rain    
Averages and records for this station are not official NWS values.
T = Trace of Precipitation, MM = Missing Value Source: NWS Daily Summary

Daily Weather History Graph

Daily Weather History Graph

Search for Another Location

Airport or City:

Trip Planner

Search our weather history database for the weather conditions in past years. The results will help you decide how hot, cold, wet, or windy it might be!

Date:

Astronomy

Mar. 28, 2014 Rise Set
Actual Time 7:16 AM EDT 7:47 PM EDT
Civil Twilight 6:48 AM EDT 8:15 PM EDT
Nautical Twilight 6:15 AM EDT 8:48 PM EDT
Astronomical Twilight 5:42 AM EDT 9:22 PM EDT
Moon 5:48 AM EDT (3/28) 5:41 PM EDT (3/28)
Length of Visible Light 13h 26m
Length of Day
12h 31m
Waning Crescent, 6% of the Moon is Illuminated
Mar 28
Waning Crescent
Mar 30
New
Apr 7
First Quarter
Apr 15
Full
Apr 22
Last Quarter

Hourly Weather History & Observations

Time (EDT) Temp. Windchill Dew Point Humidity Pressure Visibility Wind Dir Wind Speed Gust Speed Precip Events Conditions
12:53 AM 44.1 °F 37.4 °F 36.0 °F 73% 29.76 in 10.0 mi SSE 13.8 mph 23.0 mph 0.04 in Rain Light Rain
1:53 AM 46.0 °F 39.3 °F 35.1 °F 66% 29.73 in 10.0 mi SSE 16.1 mph 25.3 mph 0.00 in   Overcast
2:53 AM 48.0 °F - 33.1 °F 56% 29.72 in 10.0 mi SSE 15.0 mph - 0.00 in   Overcast
3:53 AM 52.0 °F - 33.1 °F 49% 29.70 in 10.0 mi South 25.3 mph 34.5 mph N/A   Mostly Cloudy
4:53 AM 53.1 °F - 37.0 °F 55% 29.69 in 10.0 mi South 25.3 mph 34.5 mph N/A   Overcast
5:53 AM 53.1 °F - 42.1 °F 66% 29.66 in 10.0 mi South 25.3 mph 40.3 mph N/A   Partly Cloudy
6:53 AM 53.1 °F - 43.0 °F 69% 29.68 in 10.0 mi South 25.3 mph 40.3 mph N/A   Overcast
7:53 AM 53.1 °F - 44.1 °F 71% 29.69 in 10.0 mi South 21.9 mph 33.4 mph N/A   Overcast
8:53 AM 53.1 °F - 44.1 °F 71% 29.69 in 10.0 mi South 24.2 mph 36.8 mph N/A   Mostly Cloudy
9:53 AM 54.0 °F - 45.0 °F 72% 29.69 in 10.0 mi South 21.9 mph 31.1 mph N/A   Overcast
10:25 AM - - - N/A% 29.70 in 10.0 mi North - - N/A   Overcast
10:53 AM 55.0 °F - 46.0 °F 72% 29.73 in 10.0 mi SSW 23.0 mph 41.4 mph N/A   Overcast
11:53 AM 55.0 °F - 46.0 °F 72% 29.74 in 10.0 mi SW 19.6 mph 28.8 mph N/A   Overcast
12:30 PM 50.0 °F - 44.6 °F 82% 29.75 in 4.0 mi WSW 23.0 mph 31.1 mph 0.01 in Rain Rain
12:38 PM 48.2 °F - 44.6 °F 87% 29.75 in 1.8 mi WSW 24.2 mph 32.2 mph 0.06 in Rain Heavy Rain
12:47 PM 48.2 °F - 44.6 °F 87% 29.77 in 3.0 mi WSW 33.4 mph 48.3 mph 0.07 in Rain Light Rain
12:53 PM 46.9 °F - 43.0 °F 86% 29.78 in 8.0 mi WSW 28.8 mph 48.3 mph 0.07 in Rain Light Rain
1:27 PM 42.8 °F 35.1 °F 39.2 °F 87% 29.80 in 10.0 mi West 16.1 mph - 0.00 in   Overcast
1:53 PM 41.0 °F 30.7 °F 37.9 °F 89% 29.83 in 10.0 mi West 25.3 mph - 0.00 in   Overcast
2:53 PM 41.0 °F 32.8 °F 37.0 °F 86% 29.90 in 10.0 mi West 16.1 mph - N/A   Overcast
3:53 PM 39.9 °F 30.8 °F 36.0 °F 86% 29.97 in 10.0 mi West 18.4 mph - N/A   Overcast
4:53 PM 37.0 °F 29.3 °F 35.1 °F 93% 30.02 in 10.0 mi WSW 11.5 mph - N/A   Overcast
5:53 PM 37.9 °F 29.2 °F 34.0 °F 86% 30.07 in 10.0 mi WSW 15.0 mph - N/A   Overcast
6:53 PM 37.9 °F 30.5 °F 34.0 °F 86% 30.11 in 10.0 mi West 11.5 mph - N/A   Overcast
7:53 PM 37.0 °F 32.4 °F 34.0 °F 89% 30.13 in 10.0 mi WSW 5.8 mph - N/A   Overcast
8:53 PM 35.1 °F 32.2 °F 33.1 °F 92% 30.14 in 10.0 mi WNW 3.5 mph - N/A   Overcast
9:53 PM 36.0 °F 33.3 °F 33.1 °F 89% 30.17 in 10.0 mi NE 3.5 mph - N/A   Overcast
10:53 PM 36.0 °F 32.1 °F 34.0 °F 93% 30.17 in 10.0 mi NE 4.6 mph - N/A   Overcast
11:53 PM 34.0 °F 29.8 °F 32.0 °F 92% 30.18 in 10.0 mi ENE 4.6 mph - N/A   Partly Cloudy